Terug naar catalogus

EKRAN 2 DEB

ActiefGEO
NORAD 59987·DEBRIS·🇷🇺 Russia

Gelanceerd Sep 20, 1977 vanaf Baikonur Cosmodrome

Loading…

TLE

VersSource: Space-Track

Epoch: Sep 14, 2026, 00:18 UTC

1 59987U 77092N   26257.01299647  .00000139  00000-0  00000-0 0  9996
2 59987   3.9033 272.6786 0013802 233.1472 252.7170  1.00183296 64006

Volg EKRAN 2 DEB in realtime met AllMySat

Download on the App Store